Location: Starry Hill Observatory
(46.8582°N, 122.3590°W)
Time: 19:12:53
(UTC-08:00)

ISS - Visible Passes

Search period start: 18 December 2014 00:00
Search period end: 28 December 2014 00:00
Orbit: 404 x 415 km, 51.6° (Epoch: 18 December)

Date Brightness Start Highest point End Pass type
(mag) Time Alt. Az. Time Alt. Az. Time Alt. Az.
18 Dec -2.4 17:18:17 10° WNW 17:21:22 35° N 17:23:44 15° ENE visible
18 Dec -1.0 18:55:14 10° WNW 18:56:29 20° NW 18:56:29 20° NW visible
19 Dec -2.6 18:04:29 10° WNW 18:07:35 37° N 18:07:52 36° NNE visible
20 Dec -2.4 17:13:39 10° WNW 17:16:42 34° N 17:19:15 13° ENE visible
20 Dec -1.4 18:50:20 10° WNW 18:52:00 27° NW 18:52:00 27° NW visible
21 Dec -3.0 17:59:32 10° WNW 18:02:45 50° NNE 18:03:25 42° ENE visible
22 Dec -2.7 17:08:38 10° WNW 17:11:47 40° NNE 17:14:52 10° E visible
22 Dec -2.1 18:45:14 10° WNW 18:47:38 42° W 18:47:38 42° W visible
23 Dec -3.4 17:54:17 10° WNW 17:57:35 85° NNE 17:59:12 28° ESE visible
23 Dec 0.1 19:31:31 10° W 19:31:59 12° W 19:31:59 12° W visible
24 Dec -3.2 17:03:18 10° WNW 17:06:34 58° NNE 17:09:49 10° E visible
24 Dec -1.6 18:40:06 10° W 18:42:59 29° SW 18:43:42 26° SSW visible
25 Dec -2.4 17:48:53 10° WNW 17:52:04 48° SSW 17:55:14 10° SE visible
26 Dec -3.1 16:57:43 10° WNW 17:01:01 78° SSW 17:04:18 10° ESE visible
26 Dec -0.2 18:35:22 10° WSW 18:37:06 14° SW 18:38:50 10° SSW visible
27 Dec -0.7 17:43:31 10° W 17:46:10 23° SW 17:48:48 10° SSE visible
